Sioux City, IA

4:39 AM CST on December 09, 2019 (GMT -0600)
Sioux Gateway

Weather History for KSUX - October, 2019

Change the Weather History Date:

Friday, October 11, 2019

  Actual Average Record
Temperature  
Mean Temperature 34 °F 53 °F  
Max Temperature 37 °F 66 °F 91 °F (2015)
Min Temperature 28 °F 40 °F 19 °F (1987)
Degree Days  
Heating Degree Days 32 13  
Month to date heating degree days 162 120  
Since 1 July heating degree days 198 267  
Cooling Degree Days 0 0  
Month to date cooling degree days 0 8  
Year to date cooling degree days 910 869  
Moisture  
Dew Point 25 °F    
Average Humidity 68    
Maximum Humidity 82    
Minimum Humidity 52    
Precipitation  
Precipitation T in 0.08 in 1.26 in (1912)
Month to date precipitation 2.17 0.93  
Year to date precipitation 30.28 24.43  
Snow  
Snow T in 0.00 in T in (2009)
Month to date snowfall T 0.1  
Since 1 July snowfall T 0.1  
Since 1 September snowfall T 0.1  
Snow Depth 0.00 in    
Sea Level Pressure  
Sea Level Pressure 30.08 in    
Wind  
Wind Speed 16 mph ()    
Max Wind Speed 28 mph    
Max Gust Speed 40 mph    
Visibility 10.0 miles    
Events      
T = Trace of Precipitation, MM = Missing Value Source: Averaged Metar Reports

Daily Weather History Graph

Daily Weather History Graph

Search for Another Location

Airport or City:

Astronomy

Oct. 11, 2019 Rise Set
Actual Time 7:33 AM CDT 6:50 PM CDT
Civil Twilight 7:05 AM CDT 7:18 PM CDT
Nautical Twilight 6:32 AM CDT 7:50 PM CDT
Astronomical Twilight 6:00 AM CDT 8:23 PM CDT
Moon 6:23 PM CDT (10/11) 5:10 AM CDT (10/11)
Length of Visible Light 12h 13m
Length of Day
11h 16m
Waxing Gibbous, 96% of the Moon is Illuminated
Oct 11
Waxing Gibbous
Oct 13
Full
Oct 21
Last Quarter
Oct 27
New
Nov 4
First Quarter

Hourly Weather History & Observations

Time (CDT) Temp. Windchill Dew Point Humidity Pressure Visibility Wind Dir Wind Speed Gust Speed Precip Events Conditions
12:52 AM 35.1 °F 24.1 °F 30.0 °F 82% 30.03 in 10.0 mi NW 19.6 mph 32.2 mph 0.00 in   Overcast
1:52 AM 35.1 °F 24.8 °F 28.9 °F 78% 30.02 in 10.0 mi NW 17.3 mph 26.5 mph 0.00 in   Overcast
2:52 AM 35.1 °F 25.2 °F 28.0 °F 76% 30.03 in 10.0 mi WNW 16.1 mph 24.2 mph N/A   Overcast
3:52 AM 34.0 °F 22.4 °F 28.9 °F 82% 30.03 in 10.0 mi WNW 20.7 mph 28.8 mph 0.00 in   Overcast
4:11 AM 35.1 °F 25.5 °F 28.0 °F 76% 30.01 in 10.0 mi WNW 15.0 mph 25.3 mph 0.00 in   Overcast
4:49 AM 35.6 °F 25.5 °F 26.6 °F 70% 30.02 in 10.0 mi WNW 17.3 mph 26.5 mph 0.00 in   Overcast
4:52 AM 35.1 °F 25.5 °F 27.0 °F 72% 30.05 in 10.0 mi WNW 15.0 mph 26.5 mph 0.00 in   Overcast
5:48 AM 33.8 °F 22.2 °F 26.6 °F 75% 30.04 in 10.0 mi WNW 20.7 mph 29.9 mph N/A   Overcast
5:52 AM 34.0 °F 23.0 °F 25.0 °F 70% 30.07 in 10.0 mi WNW 18.4 mph 29.9 mph N/A   Overcast
6:52 AM 34.0 °F 24.2 °F 26.1 °F 73% 30.08 in 10.0 mi WNW 15.0 mph 27.6 mph N/A   Overcast
7:06 AM 34.0 °F 22.4 °F 26.1 °F 73% 30.04 in 10.0 mi West 20.7 mph 31.1 mph N/A   Overcast
7:52 AM 34.0 °F 22.7 °F 25.0 °F 70% 30.08 in 10.0 mi WNW 19.6 mph 31.1 mph N/A   Overcast
8:49 AM 33.8 °F 23.5 °F 24.8 °F 70% 30.06 in 10.0 mi West 16.1 mph 26.5 mph N/A   Overcast
8:52 AM 33.1 °F 22.2 °F 25.0 °F 72% 30.09 in 10.0 mi West 17.3 mph 26.5 mph N/A   Overcast
9:52 AM 34.0 °F 21.8 °F 25.0 °F 70% 30.11 in 10.0 mi West 23.0 mph 34.5 mph N/A   Overcast
10:23 AM 34.0 °F 23.0 °F 25.0 °F 70% 30.08 in 10.0 mi West 18.4 mph 28.8 mph N/A   Overcast
10:52 AM 35.1 °F 24.5 °F 26.1 °F 70% 30.10 in 10.0 mi West 18.4 mph 32.2 mph N/A   Overcast
11:52 AM 35.1 °F 24.1 °F 25.0 °F 67% 30.10 in 10.0 mi West 19.6 mph 31.1 mph N/A   Overcast
12:52 PM 36.0 °F 26.0 °F 24.1 °F 62% 30.11 in 10.0 mi WNW 17.3 mph 34.5 mph N/A   Overcast
1:52 PM 36.0 °F 26.0 °F 25.0 °F 64% 30.09 in 10.0 mi West 17.3 mph 28.8 mph 0.00 in   Overcast
2:52 PM 37.0 °F 26.4 °F 24.1 °F 59% 30.09 in 10.0 mi West 20.7 mph 36.8 mph N/A   Overcast
3:52 PM 37.0 °F 27.4 °F 25.0 °F 62% 30.09 in 10.0 mi West 17.3 mph 32.2 mph 0.00 in   Overcast
4:52 PM 37.0 °F 26.7 °F 24.1 °F 59% 30.09 in 10.0 mi WNW 19.6 mph 34.5 mph N/A   Overcast
5:52 PM 37.0 °F 27.7 °F 23.0 °F 57% 30.11 in 10.0 mi West 16.1 mph 29.9 mph N/A   Overcast
6:52 PM 37.0 °F 27.4 °F 21.0 °F 52% 30.11 in 10.0 mi WNW 17.3 mph 29.9 mph N/A   Overcast
7:52 PM 35.1 °F 27.9 °F 21.9 °F 59% 30.12 in 10.0 mi West 9.2 mph - N/A   Overcast
8:52 PM 35.1 °F - 19.9 °F 54% 30.12 in 10.0 mi North - - N/A   Overcast
9:52 PM 33.1 °F 24.4 °F 19.9 °F 59% 30.12 in 10.0 mi West 11.5 mph 21.9 mph N/A   Scattered Clouds
10:52 PM 30.0 °F 21.7 °F 21.0 °F 69% 30.10 in 10.0 mi West 9.2 mph - N/A   Clear
11:52 PM 28.9 °F 20.4 °F 19.9 °F 69% 30.08 in 10.0 mi WSW 9.2 mph - N/A   Clear